User: anonymous   Login
Location: Newark
(34.1333°N, 7.9667°W)
Time: 22:00:23
(UTC+00:00)
Language:

OBJECT A - Orbit

View from above orbital plane
View from above orbital plane
View from above satellite
View from above satellite

Ground track
Ground track

The orbit data is extracted from the following two-line orbital elements,

1 48840U 21050A   24057.47660933  .00077269  00000-0  68705-3 0  9998
2 48840  97.4199 156.7169 0004270 308.8728  51.2152 15.68264422152069
Epoch (UTC): 26 February 2024 11:26:19
Eccentricity: 0.0004270
inclination: 97.4199°
perigee height: 361 km
apogee height: 367 km
right ascension of ascending node: 156.7169°
argument of perigee: 308.8728°
revolutions per day: 15.68264422
mean anomaly at epoch: 51.2152°
orbit number at epoch: 15206

The dashed part of the orbit path shows where the satellite is in the earth's shadow,  

DLR